Location: Milo
(50.5667°N, 112.8833°W)
Time: 00:16:19
(UTC+00:00)

N. Korean satellite - Pass Details

Date: 11 December 2021
Orbit: 446 x 492 km, 97.3° (Epoch: 16 January)

Event Time Altitude Azimuth Distance (km) Brightness Sun altitude
Rises 01:02:20 0° 212° (SSW) 2,503 11.1 -14.2°
Reaches altitude 10° 01:05:22 10° 242° (WSW) 1,621 10.6 -14.6°
Maximum altitude 01:07:00 13° 270° (W) 1,451 10.1 -14.9°
Drops below altitude 10° 01:08:39 10° 299° (WNW) 1,615 9.8 -15.1°
Sets 01:11:40 0° 329° (NNW) 2,486 10.4 -15.6°
